Waarnemingen

Advertentie
Mijn weer
Ibiza/Es Codola, Spanje (8373): temperatuur & dauwpunt: 21.04.2018 08:00:00 - 27.04.2018 08:00:00 (CEST)Ibiza/Es Codola, Spanje (8373): windsnelheid: 21.04.2018 08:00:00 - 27.04.2018 08:00:00 (CEST)Ibiza/Es Codola, Spanje (8373): windrichting: 21.04.2018 08:00:00 - 27.04.2018 08:00:00 (CEST)Ibiza/Es Codola, Spanje (8373): luchtdruk: 21.04.2018 08:00:00 - 27.04.2018 08:00:00 (CEST)Ibiza/Es Codola, Spanje (8373): zicht: 21.04.2018 08:00:00 - 27.04.2018 08:00:00 (CEST)
Datum & Tijd tt [°C] td [°C] ff [km/u] ff [kn] dd ppp [hPa] vv [km]
27.04.2018 08:00:00 12,3 11,4 0 0 N 1013,9 18
27.04.2018 07:00:00 10,6 9,4 2 1 - 1013,9 10
27.04.2018 06:00:00 11,0 9,1 0 0 N 1013,9 10
27.04.2018 05:00:00 11,0 9,3 4 2 NW 1014,1 18
27.04.2018 04:00:00 12,0 9,9 8 4 N 1014,4 10
27.04.2018 03:00:00 12,1 10,0 4 2 N 1014,7 10
27.04.2018 02:00:00 12,6 10,3 4 2 W 1015,5 15
27.04.2018 01:00:00 13,6 11,1 8 4 ZW 1016,0 10
27.04.2018 00:00:00 14,5 11,6 5 3 WNW 1016,1 10
26.04.2018 23:00:00 14,8 11,2 2 1 WNW 1016,4 15
26.04.2018 22:00:00 15,1 12,3 0 0 N 1016,3 10
26.04.2018 21:00:00 16,2 12,4 5 3 O 1015,8 10
26.04.2018 20:00:00 18,2 12,8 5 3 ONO 1015,6 15
26.04.2018 19:00:00 18,4 12,8 13 7 ONO 1015,7 10
26.04.2018 18:00:00 18,2 12,8 16 9 O 1015,9 10
26.04.2018 17:00:00 19,5 12,3 18 10 NNO 1015,8 15
26.04.2018 16:00:00 19,9 13,0 11 6 ONO 1016,0 10
26.04.2018 15:00:00 19,1 13,0 15 8 O 1016,7 10
26.04.2018 14:00:00 19,3 13,1 22 12 ONO 1016,8 12
26.04.2018 13:00:00 19,2 14,4 18 10 O 1016,9 10
26.04.2018 12:00:00 18,7 14,7 18 10 O 1016,7 10
26.04.2018 11:00:00 18,6 14,2 21 11 NO 1016,0 12
26.04.2018 10:00:00 18,5 13,9 15 8 NO 1016,2 10
26.04.2018 09:00:00 17,6 14,9 15 8 NO 1016,0 10
26.04.2018 08:00:00 17,4 13,9 18 10 NO 1016,0 12
26.04.2018 07:00:00 17,2 13,5 18 10 NO 1015,3 10
26.04.2018 06:00:00 17,7 12,0 13 7 NO 1014,7 10
26.04.2018 05:00:00 17,1 13,3 11 6 NO 1014,7 13
26.04.2018 04:00:00 17,6 12,9 9 5 NNO 1014,3 10
26.04.2018 03:00:00 15,8 13,8 2 1 - 1015,0 10
26.04.2018 02:00:00 16,2 14,0 5 3 ONO 1015,6 10
26.04.2018 01:00:00 16,7 14,2 2 1 - 1016,1 10
26.04.2018 00:00:00 16,7 14,0 4 2 - 1016,7 10
25.04.2018 23:00:00 17,4 13,6 9 5 NO 1016,7 13
25.04.2018 22:00:00 18,2 12,3 15 8 NNO 1016,2 10
25.04.2018 21:00:00 17,6 15,4 9 5 NNO 1015,9 10
25.04.2018 20:00:00 18,4 15,5 8 4 NO 1015,1 15
25.04.2018 19:00:00 18,0 16,3 4 2 - 1014,2 10
25.04.2018 18:00:00 17,2 15,8 11 6 O 1014,6 10
25.04.2018 17:00:00 17,2 15,5 11 6 O 1015,3 10
25.04.2018 16:00:00 17,2 15,7 15 8 NO 1015,7 9
25.04.2018 15:00:00 16,6 15,4 18 10 ONO 1017,1 9
25.04.2018 14:00:00 16,7 14,9 16 9 NNO 1016,0 12
25.04.2018 13:00:00 17,1 13,8 16 9 ONO 1017,0 10
25.04.2018 12:00:00 19,7 10,9 22 12 ONO 1016,4 10
25.04.2018 11:00:00 20,2 9,7 28 15 ONO 1016,4 15
25.04.2018 10:00:00 20,7 8,0 22 12 NO 1015,8 10
25.04.2018 09:00:00 19,4 9,8 18 10 NO 1015,1 10
25.04.2018 08:00:00 17,7 9,8 11 6 NO 1015,2 25
25.04.2018 07:00:00 18,7 9,7 16 9 NO 1014,9 10
25.04.2018 06:00:00 18,5 8,2 15 8 N 1014,6 10
25.04.2018 05:00:00 18,7 7,8 18 10 NNO 1014,5 18
25.04.2018 04:00:00 18,9 7,6 21 11 NNO 1014,7 10
25.04.2018 03:00:00 18,6 8,2 16 9 NNO 1015,5 10
25.04.2018 02:00:00 18,7 8,4 21 11 NNO 1015,7 18
25.04.2018 01:00:00 18,7 8,1 15 8 NO 1017,0 10
25.04.2018 00:00:00 18,7 8,4 18 10 NO 1016,1 10
24.04.2018 23:00:00 18,7 9,0 21 11 NO 1016,1 18
24.04.2018 22:00:00 18,7 8,6 16 9 NO 1016,6 10
24.04.2018 21:00:00 19,5 8,2 18 10 NO 1015,8 10
24.04.2018 20:00:00 19,5 9,1 16 9 NO 1016,2 10
24.04.2018 19:00:00 20,6 9,4 26 14 NO 1016,2 10
24.04.2018 18:00:00 21,6 9,5 29 16 ONO 1015,3 10
24.04.2018 17:00:00 22,3 8,4 31 17 ONO 1015,8 18
24.04.2018 16:00:00 22,1 9,9 35 19 ONO 1016,3 10
24.04.2018 15:00:00 22,2 8,2 34 18 ONO 1016,7 10
24.04.2018 14:00:00 21,2 8,5 29 16 ONO 1017,2 18
24.04.2018 13:00:00 20,2 10,0 31 17 ONO 1017,8 10
24.04.2018 12:00:00 21,7 8,9 34 18 ONO 1017,8 10
24.04.2018 11:00:00 21,7 8,9 26 14 ONO 1018,9 10
24.04.2018 10:00:00 20,1 9,6 24 13 NO 1018,3 10
24.04.2018 09:00:00 19,1 9,0 9 5 NNO 1019,1 10
24.04.2018 08:00:00 18,7 8,6 18 10 NNO 1018,5 10
24.04.2018 07:00:00 17,2 9,9 18 10 NNO 1017,1 10
24.04.2018 06:00:00 17,2 9,4 21 11 NO 1016,6 10
24.04.2018 05:00:00 18,0 8,8 24 13 NO 1016,7 15
24.04.2018 04:00:00 18,6 8,1 22 12 NO 1016,9 10
24.04.2018 03:00:00 18,6 8,8 24 13 NO 1016,9 10
24.04.2018 02:00:00 17,2 9,1 13 7 NO 1017,4 15
24.04.2018 01:00:00 18,2 9,3 16 9 NO 1017,5 10
24.04.2018 00:00:00 18,2 10,4 21 11 NO 1017,4 10
23.04.2018 23:00:00 18,4 10,2 24 13 NNO 1017,8 15
23.04.2018 22:00:00 18,1 10,5 22 12 NNO 1017,8 10
23.04.2018 21:00:00 18,6 11,9 16 9 NNO 1017,5 10
23.04.2018 20:00:00 20,0 11,8 21 11 NO 1017,0 10
23.04.2018 19:00:00 20,7 12,1 22 12 ONO 1017,1 10
23.04.2018 18:00:00 20,1 13,3 31 17 NO 1017,1 10
23.04.2018 17:00:00 20,7 13,4 29 16 ONO 1017,3 10
23.04.2018 16:00:00 21,7 12,9 28 15 ONO 1017,8 10
23.04.2018 15:00:00 22,2 11,3 26 14 ONO 1018,4 10
23.04.2018 14:00:00 21,9 11,2 31 17 ONO 1018,5 10
23.04.2018 13:00:00 21,7 11,4 29 16 ONO 1018,6 10
23.04.2018 12:00:00 21,5 11,6 31 17 ONO 1018,5 10
23.04.2018 11:00:00 20,7 11,2 28 15 ONO 1018,4 10
23.04.2018 10:00:00 20,6 10,8 21 11 NO 1018,1 10
23.04.2018 09:00:00 18,2 11,4 16 9 NNO 1018,0 10
23.04.2018 08:00:00 17,1 11,0 16 9 NNO 1017,7 20
23.04.2018 07:00:00 16,2 11,4 15 8 NO 1017,1 10
23.04.2018 06:00:00 15,5 11,7 15 8 NO 1016,8 10
23.04.2018 05:00:00 16,0 12,2 16 9 NNO 1017,0 18
23.04.2018 04:00:00 15,7 12,3 15 8 NNO 1017,4 10
23.04.2018 03:00:00 15,9 12,1 15 8 NNO 1017,7 10
23.04.2018 02:00:00 16,7 12,0 21 11 NO 1017,9 10
23.04.2018 01:00:00 16,7 12,4 18 10 NO 1018,0 10
23.04.2018 00:00:00 16,7 12,2 16 9 NO 1018,1 10
22.04.2018 23:00:00 16,5 13,0 16 9 NO 1018,0 18
22.04.2018 22:00:00 16,7 12,9 15 8 NO 1017,5 10
22.04.2018 21:00:00 16,9 12,8 15 8 NO 1017,1 10
22.04.2018 20:00:00 17,4 13,1 16 9 ONO 1016,8 20
22.04.2018 19:00:00 18,4 13,4 18 10 NO 1017,0 10
22.04.2018 18:00:00 19,2 13,4 18 10 ONO 1017,2 10
22.04.2018 17:00:00 19,7 13,2 24 13 ONO 1017,2 18
22.04.2018 16:00:00 20,3 12,5 24 13 ONO 1017,6 10
22.04.2018 15:00:00 20,2 13,2 21 11 ONO 1018,3 10
22.04.2018 14:00:00 20,1 13,0 22 12 ONO 1018,2 25
22.04.2018 13:00:00 19,8 13,5 18 10 ONO 1018,7 10
22.04.2018 12:00:00 19,7 13,0 24 13 ONO 1018,6 10
22.04.2018 11:00:00 19,6 12,1 18 10 ONO 1018,5 20
22.04.2018 10:00:00 18,4 13,0 16 9 ONO 1018,2 10
22.04.2018 09:00:00 16,6 12,9 11 6 NO 1018,0 10
22.04.2018 08:00:00 14,8 11,9 13 7 NO 1017,8 10
22.04.2018 07:00:00 13,7 9,7 8 4 NNO 1017,6 10
22.04.2018 06:00:00 14,7 9,9 11 6 NNO 1017,6 10
22.04.2018 05:00:00 14,2 11,0 13 7 NO 1017,9 20
22.04.2018 04:00:00 13,0 10,7 9 5 NNO 1018,4 10
22.04.2018 03:00:00 13,3 10,7 5 3 NNO 1018,9 10
22.04.2018 02:00:00 15,0 11,2 8 4 NO 1019,3 20
22.04.2018 01:00:00 14,8 10,6 11 6 NO 1019,5 10
22.04.2018 00:00:00 15,0 10,4 8 4 NO 1019,8 10
21.04.2018 23:00:00 15,1 10,7 9 5 NO 1019,8 20
21.04.2018 22:00:00 16,6 11,1 9 5 NNO 1019,4 10
21.04.2018 21:00:00 16,0 11,2 8 4 ONO 1019,2 10
21.04.2018 20:00:00 17,7 11,0 9 5 ONO 1019,1 25
21.04.2018 19:00:00 18,5 12,1 9 5 ONO 1019,2 10
21.04.2018 18:00:00 18,7 10,3 11 6 ONO 1019,4 10
21.04.2018 17:00:00 19,0 10,8 13 7 ONO 1019,6 25
21.04.2018 16:00:00 18,7 11,9 15 8 ONO 1020,0 10
21.04.2018 15:00:00 19,2 11,9 18 10 NO 1020,1 10
21.04.2018 14:00:00 19,1 12,6 18 10 ONO 1020,4 25
21.04.2018 13:00:00 19,7 12,1 16 9 ONO 1020,9 10
21.04.2018 12:00:00 19,7 10,9 18 10 ONO 1021,2 10
21.04.2018 11:00:00 19,6 10,6 16 9 ONO 1021,0 10
21.04.2018 10:00:00 18,5 12,0 15 8 ONO 1020,5 10
21.04.2018 09:00:00 17,0 11,3 15 8 NO 1020,0 10
21.04.2018 08:00:00 14,4 11,0 9 5 NNO 1020,1 10

tt = temperatuur
td = dauwpunt
ff = windsnelheid
dd = windrichting
ppp = luchtdruk
vv = zicht

Weerstations in de omgeving